XINGYUN-2 01

导读 | 豆包AI

XINGYUN-2 01是中国于2020年5月12日发射的“行云二号”系列卫星首星,隶属于中国行云工程,主要承担低轨窄带物联网通信技术验证任务。它可实现对全球范围的物联网终端数据采集与传输,为海洋、气象、交通等领域提供天基物联网服务,推动中国天基物联网建设发展。

基本信息
目录编号:
45602
目录名称:
XINGYUN-2 01
国际标识:
2020-028A
轨道中心:
EARTH
卫星名称:
XINGYUN-2 01
卫星全名:
--
卫星状态:
在轨 (已飞行2132 天)
发射日期:
2020-05-12 UTC
国别 :
中国 (CN)
星等 :
--
轨道信息
数据来源 国际轨道数据
星历时间: 2026-03-13T22:51:41+0800
9小时前
查看轨道信息
半长轴: 6910.246km
偏心率: 0.0009444
轨道倾角: 97.485°
近地点辐角 161.451°
升交点赤经 66.963°
平近点角 198.707°
近地点: 525.582km
远地点: 538.636km
周期: 95.280分钟
每日圈数: 15.113414
详细信息
使用方式:
暂无
2D轨道图
3D轨道图
轨道高度分析图
轨道倾角分析图
轨道综合分析图
查看轨道综合分析图